[[{"header":{"parameterUnit":"m.s-1","parameterCategory":1,"la1":30.2991,"la2":30.254,"lo1":-89.0895,"lo2":-89.0444,"dy":0.0017,"dx":0.0017,"nx":28,"ny":28,"refTime":"2023-10-14T09:00:00:Z","depth":0,"parameterNumber":2,"parameterNumberName":"U-component_of_WINDS"},"data":[0,0,0,0,0,0,0,0,0,0,0,0,0,0,0,0,0,0,0,0,0,0,0,0,0,0,0,0,0,0,0,0,0,0,0,0,0,0,0,0,0,0,0,0,0,0,0,0,0,0,0,0,0,0,0,0,0,0,3.5887,3.5887,0,3.5912,3.5913,3.5913,3.5888,3.5887,3.5886,3.5885,3.5909,3.5911,3.5912,0,0,0,0,0,0,0,0,0,0,0,0,0,3.5817,3.5818,3.5887,3.5887,3.5888,3.5912,3.5913,3.5913,3.5888,3.5886,3.5885,3.5884,3.5909,3.5911,3.5913,0,0,0,0,0,0,0,0,0,0,0,0,0,3.5845,3.5819,3.5887,3.5878,3.5878,3.5912,3.5913,3.5913,3.5888,3.5886,3.5885,3.5884,3.5908,3.591,3.5913,3.5957,0,0,3.592,3.5921,0,0,0,0,0,0,0,0,3.5844,3.5848,3.5879,3.5879,3.5878,3.5895,3.5897,3.5928,3.5888,3.5884,3.5885,3.5883,3.5906,3.5908,3.5916,3.5959,3.596,3.592,3.5922,3.5923,3.5923,0,0,0,0,0,0,0,3.5842,3.5847,3.5897,3.588,3.5879,3.5873,3.5875,3.5903,3.5903,3.5884,3.5882,3.5886,3.5905,3.5914,3.5917,3.596,3.592,3.5922,3.5924,3.5925,3.6041,3.6043,0,0,0,0,0,0,3.5841,3.5845,3.5896,3.5898,3.5857,3.5875,3.5878,3.5891,3.5903,3.5903,3.5887,3.5885,3.5911,3.5914,3.5917,3.5971,3.5923,3.5925,3.5926,3.604,3.6042,3.6043,0,0,0,0,0,0,3.5839,3.5846,3.5895,3.5871,3.5877,3.5878,3.5893,3.5893,3.5901,3.5905,3.5905,3.5896,3.591,3.5914,3.5948,3.5971,3.5926,3.5928,3.6038,3.604,3.6043,3.6077,0,0,0,0,0,0,3.5838,3.5845,3.5862,3.5872,3.5878,3.5925,3.5895,3.5894,3.5906,3.5903,3.5913,3.5913,3.5909,3.5945,3.595,3.5974,3.593,3.6036,3.6039,3.6042,3.6074,3.6081,3.6086,0,0,0,0,0,3.5835,3.587,3.5863,3.5869,3.5899,3.5927,3.5931,3.5925,3.5908,3.5925,3.5927,3.5913,3.5968,3.5948,3.5954,3.5979,3.6034,3.6038,3.6041,3.6071,3.6079,3.6086,0,0,0,0,0,0,3.5863,3.5871,3.5863,3.5903,3.5914,3.5922,3.5943,3.5934,3.595,3.5946,3.5938,3.5941,3.5977,3.5981,3.5959,3.6023,3.5998,3.6003,3.6019,3.6026,3.6033,3.603,3.5932,0,0,0,0,0,3.5873,3.5895,3.5902,3.5936,3.5942,3.5942,3.5954,3.5949,3.596,3.5965,3.5969,3.5981,3.6001,3.6014,3.6033,3.6075,3.6077,3.6095,3.6101,3.6106,3.6111,3.6134,3.6142,3.6056,3.6056,3.6056,0,0,3.5896,3.5903,3.5917,3.5942,3.595,3.5973,3.5946,3.5971,3.5988,3.5968,3.6001,3.6005,3.6017,3.6056,3.6073,3.6061,3.6135,3.6111,3.6115,3.6117,3.6139,3.6147,3.6154,3.6058,3.6058,3.6057,0,0,3.5947,3.5955,3.5985,3.5995,3.6008,3.6008,3.6015,3.6025,3.6028,3.606,3.6046,3.6066,3.6101,3.611,3.612,3.6178,3.6166,3.6184,3.6216,3.6239,3.6246,3.6252,3.6272,3.628,3.6189,3.6189,3.6189,0,3.5973,3.6007,3.6001,3.6028,3.6039,3.6024,3.6054,3.6063,3.6082,3.609,3.6076,3.612,3.6127,3.6168,3.6183,3.6191,3.6199,3.6182,3.6245,3.6251,3.6257,3.6276,3.6284,3.6191,3.6191,3.619,3.619,0,3.6038,3.6062,3.6084,3.6103,3.6117,3.6146,3.6145,3.616,3.6154,3.6156,3.619,3.6198,3.6219,3.6228,3.6222,3.6269,3.6261,3.6246,3.6221,3.6267,3.6285,3.6293,3.6194,3.6193,3.6192,3.6192,0,0,3.6106,3.6123,3.6132,3.6141,3.6155,3.6173,3.6202,3.6222,3.6235,3.6249,3.6272,3.6303,3.629,3.6301,3.6296,3.6317,3.6363,3.63,3.63,3.6311,3.6415,3.6425,3.6434,3.6355,3.6357,3.6358,3.6413,0,3.6158,3.6207,3.6204,3.6249,3.6272,3.6258,3.6283,3.6295,3.6297,3.6317,3.632,3.6342,3.6323,3.6329,3.6349,3.6353,3.6383,3.6349,3.6376,3.6377,3.6373,3.6443,3.6454,3.6506,3.6421,3.6422,3.6423,0,3.6225,3.6242,3.629,3.6303,3.6312,3.6334,3.6353,3.6372,3.6386,3.6386,3.64,3.6392,3.6421,3.6396,3.6435,3.6412,3.6423,3.6427,3.6429,3.6431,3.6402,3.6446,3.6522,3.653,3.6434,3.6433,3.6432,0,3.627,3.6305,3.6339,3.6347,3.6362,3.6378,3.6385,3.6397,3.641,3.6427,3.6436,3.6456,3.6467,3.6483,3.6481,3.6463,3.6521,3.6496,3.6522,3.6523,3.6534,3.6533,3.6613,3.6543,3.6543,3.6543,3.6543,0,3.6328,3.6358,3.6359,3.638,3.6413,3.641,3.6443,3.6448,3.646,3.6481,3.6471,3.6492,3.6489,3.6509,3.6509,3.6542,3.6547,3.6548,3.6547,3.6548,3.6548,3.6555,3.6551,3.6545,3.6544,3.6544,3.6544,0,3.6383,3.6385,3.6421,3.6433,3.6437,3.6461,3.6471,3.6491,3.6494,3.6521,3.6528,3.6532,3.6556,3.6556,3.6584,3.6583,3.6623,3.6619,3.6619,3.6618,3.6644,3.6641,3.673,3.6741,3.6665,3.6666,3.6666,0,3.6419,3.6442,3.6457,3.6472,3.648,3.6502,3.6516,3.6514,3.6529,3.6547,3.6565,3.6588,3.6606,3.6645,3.6651,3.6672,3.6667,3.6697,3.667,3.6671,3.6667,3.6666,3.6668,3.6702,3.6703,3.6703,3.6704,0,3.6484,3.6484,3.6504,3.6526,3.6542,3.6559,3.6574,3.6586,3.6586,3.6603,3.6628,3.6642,3.6671,3.6694,3.6715,3.6722,3.6713,3.6713,3.672,3.6721,3.672,3.6721,3.6632,3.671,3.671,3.6709,3.6709,3.6709,3.6531,3.6551,3.6565,3.6588,3.66,3.6614,3.6634,3.664,3.666,3.6684,3.6682,3.6709,3.6723,3.6751,3.676,3.6782,3.6771,3.6782,3.6784,3.6787,3.679,3.6717,3.6786,3.6785,3.6785,3.6785,3.6785,0,3.6595,3.6604,3.6625,3.6647,3.6666,3.6657,3.6673,3.6689,3.6714,3.6728,3.6747,3.6776,3.6799,3.6807,3.6829,3.6845,3.6842,3.6851,3.6849,3.6851,3.6797,3.6789,3.6854,3.6854,3.6854,3.6854,3.6854,3.6854,3.663,3.6664,3.6666,3.6706,3.6714,3.6742,3.6752,3.6766,3.6777,3.681,3.6829,3.6835,3.6847,3.687,3.6891,3.6893,3.6902,3.6913,3.6913,3.6862,3.6855,3.6848,3.684,3.6915,3.6915,3.6965,3.6965,3.6966]},{"header":{"parameterUnit":"m.s-1","parameterCategory":1,"la1":30.2991,"la2":30.254,"lo1":-89.0895,"lo2":-89.0444,"dy":0.0017,"dx":0.0017,"nx":28,"ny":28,"refTime":"2023-10-14T09:00:00:Z","depth":0,"parameterNumber":3,"parameterNumberName":"V-component_of_WINDS"},"data":[0,0,0,0,0,0,0,0,0,0,0,0,0,0,0,0,0,0,0,0,0,0,0,0,0,0,0,0,0,0,0,0,0,0,0,0,0,0,0,0,0,0,0,0,0,0,0,0,0,0,0,0,0,0,0,0,0,0,-7.4179,-7.418,0,-7.431,-7.4311,-7.4313,-7.4261,-7.4258,-7.4255,-7.4252,-7.4381,-7.4387,-7.4393,0,0,0,0,0,0,0,0,0,0,0,0,0,-7.388,-7.3885,-7.4179,-7.418,-7.4182,-7.431,-7.4311,-7.4313,-7.4261,-7.4258,-7.4254,-7.425,-7.4379,-7.4386,-7.4394,0,0,0,0,0,0,0,0,0,0,0,0,0,-7.401,-7.3887,-7.4178,-7.4172,-7.4172,-7.4309,-7.4311,-7.4314,-7.4262,-7.4258,-7.4253,-7.4249,-7.4377,-7.4386,-7.4395,-7.4545,0,0,-7.4424,-7.4428,0,0,0,0,0,0,0,0,-7.4003,-7.4021,-7.4171,-7.4172,-7.4173,-7.4264,-7.4253,-7.4391,-7.4263,-7.4228,-7.4252,-7.4246,-7.4346,-7.4357,-7.4392,-7.4551,-7.4556,-7.4425,-7.443,-7.4434,-7.4437,0,0,0,0,0,0,0,-7.3994,-7.4015,-7.423,-7.4173,-7.4175,-7.4161,-7.4174,-7.4279,-7.4311,-7.4231,-7.4227,-7.4244,-7.4345,-7.4383,-7.4394,-7.4558,-7.4424,-7.4433,-7.4439,-7.4442,-7.4848,-7.4853,0,0,0,0,0,0,-7.3985,-7.4008,-7.4226,-7.4234,-7.4075,-7.417,-7.4185,-7.424,-7.4309,-7.4316,-7.4247,-7.4241,-7.4369,-7.4383,-7.4399,-7.458,-7.4434,-7.4443,-7.4449,-7.4843,-7.4849,-7.4855,0,0,0,0,0,0,-7.3979,-7.4005,-7.4221,-7.412,-7.4147,-7.418,-7.4242,-7.4245,-7.4282,-7.4322,-7.4327,-7.428,-7.4366,-7.4385,-7.451,-7.4583,-7.4447,-7.4456,-7.4837,-7.4845,-7.4852,-7.4942,0,0,0,0,0,0,-7.397,-7.4003,-7.4061,-7.4122,-7.4152,-7.4331,-7.4246,-7.4251,-7.4299,-7.4292,-7.4354,-7.436,-7.4364,-7.4496,-7.4519,-7.4594,-7.4463,-7.483,-7.484,-7.4849,-7.4933,-7.4952,-7.4969,0,0,0,0,0,-7.396,-7.408,-7.4064,-7.4091,-7.4226,-7.4335,-7.4352,-7.4356,-7.4305,-7.4364,-7.439,-7.4358,-7.4572,-7.4509,-7.4535,-7.4614,-7.4826,-7.4838,-7.4849,-7.4925,-7.4948,-7.4968,0,0,0,0,0,0,-7.4024,-7.4088,-7.4071,-7.4215,-7.427,-7.4326,-7.44,-7.438,-7.445,-7.444,-7.4439,-7.4454,-7.4582,-7.461,-7.4539,-7.4763,-7.4691,-7.4708,-7.474,-7.4763,-7.478,-7.4771,-7.4471,0,0,0,0,0,-7.4056,-7.4141,-7.4191,-7.4313,-7.4342,-7.4366,-7.4414,-7.4412,-7.4469,-7.4491,-7.4526,-7.4581,-7.4661,-7.4713,-7.4788,-7.4937,-7.495,-7.5004,-7.5021,-7.5036,-7.5051,-7.5132,-7.5157,-7.4892,-7.4892,-7.4892,0,0,-7.4121,-7.4166,-7.4219,-7.4327,-7.437,-7.4457,-7.4386,-7.4481,-7.4545,-7.4505,-7.4625,-7.4653,-7.4714,-7.4852,-7.4914,-7.4879,-7.5127,-7.5051,-7.5062,-7.5069,-7.5147,-7.5172,-7.5194,-7.49,-7.4899,-7.4898,0,0,-7.4284,-7.4326,-7.4433,-7.4479,-7.4545,-7.4561,-7.4587,-7.4647,-7.4664,-7.4785,-7.4757,-7.4833,-7.497,-7.5015,-7.5056,-7.5239,-7.5212,-7.5263,-7.5356,-7.5436,-7.5456,-7.5475,-7.5541,-7.5564,-7.5277,-7.5278,-7.5278,0,-7.4356,-7.4487,-7.449,-7.4589,-7.4637,-7.4607,-7.4715,-7.4758,-7.4845,-7.4878,-7.4838,-7.5011,-7.505,-7.5198,-7.5243,-7.5277,-7.5306,-7.5256,-7.5453,-7.5472,-7.5489,-7.5552,-7.5577,-7.5283,-7.5283,-7.5282,-7.5282,0,-7.4573,-7.4665,-7.4743,-7.4831,-7.4887,-7.499,-7.5008,-7.5065,-7.5058,-7.5078,-7.5202,-7.5248,-7.5333,-7.5367,-7.5361,-7.5515,-7.5491,-7.5453,-7.538,-7.552,-7.5579,-7.5603,-7.5292,-7.529,-7.5288,-7.5286,0,0,-7.478,-7.4869,-7.4898,-7.4938,-7.501,-7.508,-7.5181,-7.5266,-7.5316,-7.5377,-7.5461,-7.5579,-7.5544,-7.5591,-7.5589,-7.5659,-7.5801,-7.5611,-7.5613,-7.5646,-7.5975,-7.6004,-7.6032,-7.5785,-7.5789,-7.5793,-7.597,0,-7.4949,-7.5129,-7.5135,-7.5298,-7.5383,-7.5357,-7.5445,-7.5498,-7.5519,-7.5594,-7.5616,-7.57,-7.5647,-7.5676,-7.5743,-7.577,-7.5867,-7.5757,-7.5863,-7.5866,-7.5849,-7.6063,-7.6094,-7.6259,-7.5993,-7.5997,-7.6,0,-7.5171,-7.5242,-7.5414,-7.5476,-7.5512,-7.5591,-7.567,-7.5742,-7.5801,-7.5812,-7.5865,-7.5854,-7.5956,-7.5881,-7.6022,-7.5947,-7.599,-7.601,-7.6016,-7.6026,-7.5942,-7.6079,-7.6311,-7.6337,-7.6036,-7.6033,-7.603,0,-7.5306,-7.5444,-7.5566,-7.56,-7.5675,-7.5731,-7.5764,-7.582,-7.5871,-7.594,-7.5973,-7.6052,-7.6095,-7.6156,-7.6165,-7.611,-7.6307,-7.6232,-7.6319,-7.6319,-7.6362,-7.6359,-7.6605,-7.6389,-7.6389,-7.6388,-7.6388,0,-7.5495,-7.5601,-7.5628,-7.5702,-7.5821,-7.5827,-7.5944,-7.5973,-7.6023,-7.6102,-7.6082,-7.6157,-7.6165,-7.6242,-7.625,-7.6366,-7.6385,-7.6396,-7.6397,-7.6398,-7.6397,-7.6427,-7.6416,-7.6395,-7.6393,-7.6392,-7.6391,0,-7.5665,-7.5687,-7.5818,-7.5879,-7.5896,-7.5981,-7.6032,-7.6104,-7.6123,-7.6224,-7.6248,-7.6279,-7.6368,-7.6384,-7.6488,-7.6494,-7.6633,-7.6622,-7.6614,-7.6612,-7.6698,-7.669,-7.6972,-7.701,-7.6769,-7.6771,-7.6773,0,-7.5785,-7.5867,-7.5937,-7.599,-7.6026,-7.6111,-7.6164,-7.6173,-7.6228,-7.6304,-7.6366,-7.6454,-7.6524,-7.6668,-7.6699,-7.6779,-7.677,-7.6863,-7.6782,-7.6781,-7.6772,-7.6768,-7.6776,-7.6879,-7.6882,-7.6884,-7.6885,0,-7.5995,-7.6002,-7.608,-7.6163,-7.6227,-7.6291,-7.6353,-7.6396,-7.6413,-7.6476,-7.6569,-7.6624,-7.6732,-7.682,-7.69,-7.6932,-7.6912,-7.6911,-7.6935,-7.6938,-7.693,-7.6936,-7.6657,-7.6905,-7.6903,-7.6901,-7.69,-7.6899,-7.6144,-7.6216,-7.6278,-7.6365,-7.6413,-7.6471,-7.6542,-7.6571,-7.6649,-7.6739,-7.6739,-7.6841,-7.6898,-7.7004,-7.7043,-7.7121,-7.7091,-7.7126,-7.7135,-7.7144,-7.7152,-7.6918,-7.7135,-7.7135,-7.7134,-7.7134,-7.7134,0,-7.6354,-7.6392,-7.6473,-7.6561,-7.663,-7.6607,-7.6674,-7.6733,-7.6823,-7.688,-7.6951,-7.7057,-7.7142,-7.718,-7.7264,-7.7319,-7.7312,-7.7341,-7.7337,-7.7345,-7.7174,-7.7145,-7.7346,-7.7346,-7.7346,-7.7345,-7.7345,-7.7345,-7.6471,-7.6593,-7.6607,-7.6752,-7.6789,-7.689,-7.6931,-7.6984,-7.703,-7.715,-7.7222,-7.7247,-7.7296,-7.7384,-7.746,-7.7469,-7.7501,-7.7535,-7.7539,-7.7379,-7.7357,-7.7337,-7.731,-7.7541,-7.7542,-7.7704,-7.7706,-7.7707]}]]